Regional Weather Roundup
Issued by NWS Upton, NY

Current Version | Previous Version | Graphics & Text | Print | Product List | Glossary Off
Versions: 1 2 3 4 5 6 7 8 9 10 11 12 13 14 15 16 17 18 19 20 21 22 23 24 25 26 27

000
ASUS41 KOKX 220410
RWROKX

REGIONAL WEATHER ROUNDUP
NATIONAL WEATHER SERVICE NEW YORK NY
1200 AM EDT SAT JUL 22 2017

NOTE: "FAIR" INDICATES FEW OR NO CLOUDS BELOW 12,000 FEET WITH NO
SIGNIFICANT WEATHER AND/OR OBSTRUCTIONS TO VISIBILITY.

NYZ071-072-176-178-NJZ106-104-220500-
NEW YORK CITY METRO AREA

CITY           SKY/WX    TMP DP  RH WIND       PRES   REMARKS
Central Park   CLOUDY    85  69  58 VRB6      29.90S
Bronx Bot Gard   N/A     86  66  51 SW6       29.89S
LaGuardia APRT CLOUDY    88  71  57 W10       29.86S HX  94
Kennedy INTL   MOCLDY    82  74  76 SW10      29.88S
Breezy Point   NOT AVBL
Newark/Liberty MOCLDY    85  69  58 W9        29.87S
Teterboro      CLOUDY    85  69  58 W6        29.86R
$$

NYZ177-179-078>081-220500-
LONG ISLAND NEW YORK

CITY           SKY/WX    TMP DP  RH WIND       PRES   REMARKS
Jones Beach      N/A     77 N/A N/A SW5G10      N/A
Matinecock PT    N/A     82 N/A N/A SW7         N/A
Farmingdale    MOCLDY    80  73  79 SW6       29.88S
MacArthur/ISP  CLOUDY    79  74  84 SW8       29.87R
Shirley        CLOUDY    80  75  84 SW6       29.87S
Mt Sinai Harb    N/A    N/A N/A N/A SW7         N/A
Westhampton    PTCLDY    78  71  79 SW9       29.89S
East Hampton   FAIR      76  70  81 W5        29.86S
Montauk          N/A     79  70  74 SW6       29.87S
$$

NYZ052-065-067-220500-
HUDSON VALLEY

CITY           SKY/WX    TMP DP  RH WIND       PRES   REMARKS
White Plains   NOT AVBL
Larchmont Harb   N/A     82 N/A N/A SW7         N/A
Croton O-T Hud   N/A     79 N/A N/A MISG        N/A
Newburgh       MOCLDY    75  72  88 CALM      29.90R
Montgomery     MOCLDY    74  71  91 CALM      29.89R
Poughkeepsie   CLEAR     74  69  85 CALM      29.86R
Albany         MOCLDY    73  59  61 W12       29.88R
$$

NJZ001-105-106-008-010-013-015-019>022-104-220500-
NEW JERSEY

CITY           SKY/WX    TMP DP  RH WIND       PRES   REMARKS
Newark/Liberty MOCLDY    85  69  58 W9        29.87S
Teterboro      CLOUDY    85  69  58 W6        29.86R
Caldwell       PTCLDY    80  70  71 SW3       29.88S
Somerville     MOCLDY    74  73  97 CALM      29.87S FOG
Linden         FAIR      84  68  59 W5        29.88S
Perth Amboy      N/A     82 N/A N/A W7          N/A
Sussex         PTCLDY    74  73  97 CALM      29.90S
Andover          N/A     74  72  93 CALM      29.91S
Trenton        CLOUDY    82  72  71 CALM      29.89S
Millville      PTCLDY    78  77  96 CALM      29.90S
Atlantic City  MOCLDY    81  75  82 CALM      29.90F
Wrightstown    CLOUDY    79  71  77 SW5       29.87F
Toms River     CLOUDY    79  73  82 SW5       29.90F HAZE
Belmar         CLOUDY    80  72  76 S5        29.91S
$$

PAZ047>061-062-071-220500-
EASTERN PENNSYLVANIA

CITY           SKY/WX    TMP DP  RH WIND       PRES   REMARKS
Philadelphia   CLOUDY    84  71  65 SW5       29.90S
Allentown      MOCLDY    78  71  79 CALM      29.90S
Scranton       CLOUDY    74  71  91 CALM      29.93S
$$

CTZ002-004>006-009-010-012-RIZ004-006-007-MAZ004-011-015-220500-
SOUTHERN NEW ENGLAND
 IN CT

CITY           SKY/WX    TMP DP  RH WIND       PRES   REMARKS
Bradley INTL   MOCLDY    76  68  76 NW6       29.86R
Hartford       CLOUDY    78  70  76 CALM      29.85R
Danbury        MOCLDY    74  70  87 CALM      29.89S
Wtrbury/Oxford CLOUDY    73  64  73 CALM      29.90R
Bridgeport     CLOUDY    79  72  79 W3        29.86R
Meriden        CLOUDY    73  70  90 CALM      29.86S
New Haven      CLOUDY    79  70  74 SW6       29.86S
Chester        FAIR      77  68  73 CALM      29.87S
Groton         CLOUDY    76  69  79 W5        29.85R
Wilimantic     CLEAR     75  70  84 CALM      29.86R

 IN RI

CITY           SKY/WX    TMP DP  RH WIND       PRES   REMARKS
Providence     CLEAR     77  71  82 W6        29.85R
Block Island   CLOUDY    74  69  85 SW12      29.87R
Westerly       CLOUDY    76  70  82 CALM      29.86S
 IN MA

CITY           SKY/WX    TMP DP  RH WIND       PRES   REMARKS
Boston         CLOUDY    80  59  48 W14       29.82R
Worcester      PTCLDY    75  56  51 W14G22    29.89R
Westfield      PTCLDY    70  69  97 CALM      29.86R
Provincetown   CLOUDY    73  68  84 W10       29.82S
Nantucket      PTCLDY    72  71  97 W13       29.84S
$$

ANZ330-335-338-340-345-350-353-355-220500-
COASTAL MARINE OBSERVATIONS


STATION/POSITION TIME  SKY/WX   TEMP    WIND        PRES    VSBY  WAVE
                                AIR SEA DIR/SP/G                  HT/PER
                 (UTC)          (F)     (DEG/KT/KT) (MB)    (MI)  (FT/S)
NY HARB ENTRANCE 0350            78 76  210/  8/  8 1011.5          2/ 6
20 S FIRE ISLAND 0350            78 76  230/ 10/ 12 1011.5          2/ 7
GREAT SOUTH BAY  0330            80 83  230/ 12/ 17   N/A
23 SSW MONTAUK P 0350            78 76              1011.7          3/ 6
15 E BARNEGAT LI 0330               78                N/A           3/ 4
HUDSON CANYON    0250            81 80  210/  6/  8 1011.9          3/ 6
KINGS POINT      0348            82 72  230/  2/  3 1011.3
EXECUTION ROCKS  0345            81     240/  8/ 10   N/A
CENTRAL LI SOUND 0315            78     210/  8/ 10   N/A           1
EASTERN LI SOUND NOT AVBL
ROBBINS REEF     0348                   240/  8/  9 1012.2
$$


>>>>>>>>>>>>>>>>>>>>>>>>>>>> KEY <<<<<<<<<<<<<<<<<<<<<<<<<<<
>                                                          <
>     SKY/WX - Sky Condition/Present Weather               <
>     TMP    - Temperature in Fahrenheit                   <
>     DP     - Dew Point in Fahrenheit                     <
>     RH     - Relative Humidity in Percent                <
>     WIND   - Direction (from) and Speed in MPH           <
>     PRES   - Mean Sea Level Pressure (inches of Hg)      <
>     WCI    - Wind Chill Index                            <
>     VSB    - VISIBILITY IN MILES                         <
>     HX     - HEAT INDEX                                  <
>     TC     - TEMPERATURE IN CELSIUS                      <
>     VRB    - VARIABLE WIND DIRECTION                     <
>                                                          <
>>>>>>>>>>>>>>>>>>>>>>>>>>>> KEY <<<<<<<<<<<<<<<<<<<<<<<<<<<




USA.gov is the U.S. government's official web portal to all federal, state and local government web resources and services.